Regional Weather Roundup
Issued by NWS

Home | Current Version | Previous Version | Text Only | Print | Product List | Glossary On
Versions: 1 2 3 4 5 6 7 8 9 10 11 12 13 14 15 16 17 18 19 20 21 22 23 24 25 26 27 28 29 30 31 32 33 34 35 36 37 38 39 40 41 42 43 44 45 46 47 48 49 50
000
ASUS46 KPQR 280110
RWROR

OREGON REGIONAL WEATHER ROUNDUP
NATIONAL WEATHER SERVICE PORTLAND OR
600 PM PDT THU JUL 27 2017

NOTE: "FAIR" INDICATES FEW OR NO CLOUDS BELOW 12,000 FEET WITH
NO SIGNIFICANT WEATHER AND/OR OBSTRUCTIONS TO VISIBILITY.

ORZ001>013-280200-
NORTHWEST OREGON


CITY           SKY/WX    TMP DP  RH WIND       PRES   REMARKS
ASTORIA        SUNNY     64  50  60 NW15      30.14F
NEWPORT        SUNNY     61  54  77 N14G20    30.14F
PORTLAND       MOSUNNY   77  54  44 N9        30.05F
VANCOUVER WA   SUNNY     77  54  44 NW12      30.05F
SCAPPOOSE      SUNNY     77  53  43 N13       30.05F
HILLSBORO      SUNNY     79  56  45 E5        30.05F
AURORA         SUNNY     80  55  42 N8        30.05F
MCMINNVILLE    SUNNY     81  55  40 N6        30.05F
SALEM          SUNNY     80  54  40 NE10      30.03F
CORVALLIS      SUNNY     82  57  42 NE6       30.05F
EUGENE         MOSUNNY   80  56  43 N16       30.03F
$$

ORZ021-028-280200-
SOUTHWEST OREGON


CITY           SKY/WX    TMP DP  RH WIND       PRES   REMARKS
NORTH BEND     SUNNY     62  54  74 N18G26    30.12F
BROOKINGS      SUNNY     63  55  75 S7        30.03F
ROSEBURG       SUNNY     86  55  34 NW10      29.99F
SEXTON SUMMIT  SUNNY     75  49  39 N6        30.11F
GRANTS PASS    FAIR      90  50  25 N13       29.98F
MEDFORD        MOSUNNY   95  49  20 NW12      29.92F HX  92
$$

ORZ014>016-041-280200-
COLUMBIA GORGE


CITY           SKY/WX    TMP DP  RH WIND       PRES   REMARKS
TROUTDALE      SUNNY     79  48  33 NW8       30.04F
HOOD RIVER     SUNNY     79  54  41 W9        29.98S
THE DALLES     SUNNY     87  51  28 W23G33    29.92F
$$

ORZ029>031-041-044-049-050-061>064-502-503-505>511-280200-
EASTERN OREGON


CITY           SKY/WX    TMP DP  RH WIND       PRES   REMARKS
MADRAS         SUNNY     88  41  19 NW14      30.00F
REDMOND        SUNNY     89  36  15 NW12      30.00F
BEND           SUNNY     90  39  17 NW12      30.03F
PRINEVILLE     SUNNY     86  39  19 N12G21    30.03S
KLAMATH FALLS  SUNNY     87  42  20 W8        30.06F
LAKEVIEW       SUNNY     84  43  23 VRB3      30.12F
HERMISTON      SUNNY     94  35  12 W13       29.87F
PENDLETON      SUNNY     91  36  14 W13       29.93F
JOHN DAY       MOSUNNY   90  43  19 CALM      30.01F
MEACHAM        SUNNY     81  33  17 VRB3      30.08S
LA GRANDE      MOSUNNY   90  45  20 NW15      29.97S
BAKER CITY     SUNNY     81  54  39 W7        30.02F
BURNS          MOSUNNY   87  42  20 S10       30.05F
ROME             N/A     92  39  15 VRB7      30.03F
ONTARIO        SUNNY     94  47  20 CALM      29.94F HX  90
$$



USA.gov is the U.S. government's official web portal to all federal, state and local government web resources and services.